This is the latest recevied weather packets stored in our database for station/object DL9CN-10. If no packets are shown the sender has not sent any weather packets the latest 1 day(s).
| Time | Temp. | Humidity | Pressure | Rain* | Wind** | Luminosity | Snow |
|---|---|---|---|---|---|---|---|
| 1778079180 | 20° C | 57% | 1008.9 hPa | - | - | - | - |
| 1778076480 | 20° C | 57% | 1008.8 hPa | - | - | - | - |
| 1778075580 | 20.56° C | 57% | 1008.5 hPa | - | - | - | - |
| 1778071979 | 20.56° C | 60% | 1007.8 hPa | - | - | - | - |
| 1778071079 | 20.56° C | 61% | 1007.8 hPa | - | - | - | - |
| 1778070179 | 20.56° C | 61% | 1007.8 hPa | - | - | - | - |
| 1778069279 | 20.56° C | 62% | 1007.8 hPa | - | - | - | - |
| 1778064778 | 19.44° C | 64% | 1008.1 hPa | - | - | - | - |
| 1778063878 | 19.44° C | 64% | 1008.1 hPa | - | - | - | - |
| 1778062981 | 18.89° C | 65% | 1008.3 hPa | - | - | - | - |
| 1778062084 | 18.89° C | 65% | 1008.2 hPa | - | - | - | - |
| 1778058481 | 17.78° C | 65% | 1008.4 hPa | - | - | - | - |
| 1778050379 | 16.11° C | 63% | 1007.8 hPa | - | - | - | - |
| 1778048579 | 16.11° C | 63% | 1008.1 hPa | - | - | - | - |
| 1778046778 | 15.56° C | 62% | 1008.2 hPa | - | - | - | - |
| 1778045878 | 15.56° C | 62% | 1008.1 hPa | - | - | - | - |
| 1778044978 | 15.56° C | 61% | 1008.3 hPa | - | - | - | - |
| 1778044078 | 15.56° C | 61% | 1008.3 hPa | - | - | - | - |
| 1778043178 | 15.56° C | 61% | 1008.3 hPa | - | - | - | - |
| 1778042277 | 15.56° C | 61% | 1008.2 hPa | - | - | - | - |
| 1778041379 | 15.56° C | 61% | 1008.2 hPa | - | - | - | - |
| 1778040479 | 15.56° C | 61% | 1008.2 hPa | - | - | - | - |
| 1778039579 | 16.11° C | 61% | 1008.2 hPa | - | - | - | - |
| 1778037778 | 16.11° C | 61% | 1008.3 hPa | - | - | - | - |
| 1778036878 | 16.11° C | 61% | 1008.4 hPa | - | - | - | - |
* Rain since midnight (hover to see other rain measurements)
** Current wind speed in m/s (hover to see current wind gust speed)